Location: Berville
(49.1893°N, 2.0748°E)
Time: 06:57:43
(UTC+00:00)

Cosmos 1602 Rocket - Pass Details

Date: 08 February 2023
Orbit: 603 x 630 km, 82.5° (Epoch: 21 March)

Event Time Altitude Azimuth Distance (km) Brightness Sun altitude
Rises 18:31:51 0° 170° (S) 2,847 6.9 -15.4°
Reaches altitude 10° 18:34:08 10° 163° (SSE) 1,947 6.0 -15.8°
Maximum altitude 18:38:11 42° 93° (E) 864 3.8 -16.5°
Drops below altitude 10° 18:42:17 10° 22° (NNE) 1,963 5.9 -17.1°
Sets 18:44:35 0° 16° (NNE) 2,874 6.8 -17.5°
